Weather History for Berlin, NH

Change the Weather History Date:

Monday, January 19, 1998

  Actual Average Record
Temperature  
Mean Temperature 24 °F -  
Max Temperature 30 °F 19 °F 41 °F (1999)
Min Temperature 17 °F 0 °F -27 °F (1997)
Degree Days  
Heating Degree Days 42    
Moisture  
Dew Point 21 °F    
Average Humidity 90    
Maximum Humidity 100    
Minimum Humidity 79    
Precipitation  
Precipitation 0.01 in - - ()
Sea Level Pressure  
Sea Level Pressure 30.05 in    
Wind  
Wind Speed 0 mph (North)    
Max Wind Speed 5 mph    
Max Gust Speed -    
Visibility 5 miles    
Events Snow    
Averages and records for this station are not official NWS values.
T = Trace of Precipitation, MM = Missing Value Source: NWS Daily Summary

Daily Weather History Graph

Daily Weather History Graph

Search for Another Location

Airport:

Trip Planner

Search our weather history database for the weather conditions in past years. The results will help you decide how hot, cold, wet, or windy it might be!

Date:

Astronomy

Jan. 19, 1998 Rise Set
Actual Time 7:15 AM EST 4:35 PM EST
Civil Twilight 6:43 AM EST 5:07 PM EST
Nautical Twilight 6:07 AM EST 5:43 PM EST
Astronomical Twilight 5:33 AM EST 6:18 PM EST
Moon 11:40 PM EST (1/19) 10:39 AM EST (1/19)
Length of Visible Light 10h 24m
Length of Day
9h 20m
Waning Gibbous, 60% of the Moon is Illuminated
Jan 19
Waning Gibbous
Jan 20
Last Quarter
Jan 28
New
Feb 3
First Quarter
Feb 11
Full

Hourly Weather History & Observations

Time (EST) Temp. Windchill Dew Point Humidity Pressure Visibility Wind Dir Wind Speed Gust Speed Precip Events Conditions
12:52 AM 19.0 °F - 17.1 °F 92% 30.12 in 9.0 mi Calm Calm - N/A   Overcast
1:52 AM 19.0 °F - 17.1 °F 92% 30.13 in 10.0 mi Calm Calm - N/A   Overcast
2:52 AM 19.0 °F - 17.1 °F 92% 30.13 in 10.0 mi Calm Calm - N/A   Overcast
3:31 AM 19.4 °F - 14.0 °F 80% 30.06 in 8.0 mi Calm Calm - N/A   Overcast
3:52 AM 18.0 °F - 12.9 °F 81% 30.12 in 8.0 mi Calm Calm - N/A   Overcast
4:52 AM 18.0 °F - 15.1 °F 88% 30.12 in 10.0 mi Calm Calm - N/A   Overcast
5:52 AM 18.0 °F - 16.0 °F 92% 30.12 in 8.0 mi Calm Calm - N/A   Overcast
6:14 AM 19.4 °F - 17.6 °F 93% 30.06 in 1.8 mi Calm Calm - 0.00 in Snow Light Snow
6:27 AM 19.4 °F - 17.6 °F 93% 30.06 in 2.0 mi Calm Calm - 0.00 in Snow Light Snow
6:40 AM 19.4 °F - 17.6 °F 93% 30.06 in 1.8 mi Calm Calm - 0.00 in Snow Light Snow
6:52 AM 19.0 °F - 17.1 °F 92% 30.12 in 1.8 mi Calm Calm - 0.00 in Snow Light Snow
7:05 AM 19.4 °F - 17.6 °F 93% 30.06 in 2.5 mi Calm Calm - 0.00 in Snow Light Snow
7:15 AM 19.4 °F - 17.6 °F 93% 30.06 in 3.0 mi Calm Calm - 0.01 in Snow Light Snow
7:19 AM 19.4 °F - 17.6 °F 93% 30.06 in 1.8 mi Calm Calm - 0.01 in Snow Light Snow
7:29 AM 19.4 °F - 17.6 °F 93% 30.06 in 1.2 mi Calm Calm - 0.01 in Snow Light Snow
7:38 AM 17.6 °F - 17.6 °F 100% 30.06 in 1.5 mi Calm Calm - 0.01 in Snow Light Snow
7:52 AM 18.0 °F - 16.0 °F 92% 30.12 in 3.0 mi Calm Calm - 0.01 in Snow Light Snow
8:01 AM 17.6 °F - 15.8 °F 93% 30.05 in 2.0 mi Calm Calm - 0.00 in Snow Light Snow
8:10 AM 17.6 °F - 14.0 °F 86% 30.05 in 2.5 mi Calm Calm - 0.00 in Snow Light Snow
8:19 AM 17.6 °F - 15.8 °F 93% 30.05 in 4.0 mi Calm Calm - 0.00 in Snow Light Snow
8:52 AM 19.0 °F - 17.1 °F 92% 30.12 in 6.0 mi Calm Calm - 0.00 in   Overcast
9:52 AM 21.0 °F - 18.0 °F 88% 30.13 in 7.0 mi Calm Calm - N/A   Overcast
10:08 AM 21.2 °F - 17.6 °F 86% 30.07 in 2.0 mi Calm Calm - 0.00 in Snow Light Snow
10:32 AM 23.0 °F - 19.4 °F 86% 30.06 in 2.5 mi Calm Calm - 0.00 in Snow Light Snow
10:42 AM 23.0 °F - 19.4 °F 86% 30.06 in 4.0 mi Calm Calm - 0.00 in Snow Light Snow
10:52 AM 23.0 °F - 19.0 °F 85% 30.12 in 8.0 mi Calm Calm - 0.00 in   Overcast
11:52 AM 28.0 °F 24.2 °F 23.0 °F 81% 30.09 in 10.0 mi North 3.5 mph - N/A   Overcast
12:52 PM 30.0 °F - 24.1 °F 79% 30.06 in 10.0 mi Calm Calm - N/A   Overcast
1:00 PM 30.2 °F - 24.8 °F 80% 30.01 in 10.0 mi Calm Calm - N/A   Overcast
1:10 PM 30.2 °F - 24.8 °F 80% 30.00 in 10.0 mi Calm Calm - N/A   Overcast
1:21 PM 30.2 °F - 24.8 °F 80% 30.00 in 10.0 mi Calm Calm - N/A   Overcast
1:52 PM 30.0 °F - 24.1 °F 79% 30.06 in 10.0 mi Calm Calm - N/A   Overcast
2:17 PM 30.2 °F 25.4 °F 24.8 °F 80% 30.00 in 8.0 mi North 4.6 mph - N/A   Overcast
2:52 PM 30.0 °F 26.5 °F 26.1 °F 85% 30.05 in 4.0 mi NNW 3.5 mph - 0.00 in Snow Light Snow
3:09 PM 30.2 °F - 26.6 °F 86% 29.99 in 7.0 mi Calm Calm - 0.00 in   Overcast
3:37 PM 30.2 °F - 26.6 °F 86% 29.99 in 7.0 mi Calm Calm - 0.00 in Snow Light Snow
3:52 PM 30.0 °F 26.5 °F 24.1 °F 79% 30.05 in 9.0 mi East 3.5 mph - 0.00 in   Overcast
4:52 PM 27.0 °F - 25.0 °F 92% 30.05 in 10.0 mi Calm Calm - 0.00 in   Overcast
5:52 PM 23.0 °F - 21.9 °F 96% 30.06 in 8.0 mi Calm Calm - N/A   Overcast
6:08 PM 24.8 °F - 24.8 °F 100% 29.99 in 1.8 mi Calm Calm - N/A   Overcast
6:16 PM 24.8 °F - 24.8 °F 100% 30.00 in 1.2 mi Calm Calm - N/A   Overcast
6:20 PM 24.8 °F - 24.8 °F 100% 30.00 in 2.0 mi Calm Calm - N/A   Overcast
6:29 PM 24.8 °F - 24.8 °F 100% 30.00 in 8.0 mi Calm Calm - N/A   Overcast
6:52 PM 24.1 °F - 23.0 °F 96% 30.06 in 6.0 mi Calm Calm - N/A   Overcast
7:52 PM 27.0 °F 23.0 °F 25.0 °F 92% 30.06 in 2.5 mi North 3.5 mph - 0.00 in Snow Light Snow
8:03 PM 26.6 °F - 24.8 °F 93% 30.01 in 3.0 mi Calm Calm - 0.00 in Snow Light Snow
8:52 PM 25.0 °F - 24.1 °F 96% 30.06 in 4.0 mi Calm Calm - 0.00 in Snow Light Snow
9:24 PM 24.8 °F - 24.8 °F 100% 29.99 in 3.0 mi Calm Calm - 0.00 in Snow Light Snow
9:52 PM 25.0 °F - 24.1 °F 96% 30.05 in 3.0 mi Calm Calm - 0.00 in Snow Light Snow
10:27 PM 24.8 °F - 24.8 °F 100% 29.98 in 3.0 mi Calm Calm - 0.00 in Snow Light Snow
10:52 PM 24.1 °F - 23.0 °F 96% 30.04 in 3.0 mi Calm Calm - 0.00 in Snow Light Snow
11:13 PM 24.8 °F - 23.0 °F 93% 29.97 in 4.0 mi Calm Calm - 0.00 in   Overcast
11:52 PM 24.1 °F - 23.0 °F 96% 30.02 in 2.5 mi Calm Calm - 0.00 in Snow Light Snow